KB2EAR-13 Weather Reports


time (UTC)temp
C
wind
direction
speed
KPH
gust
KPH
rain 1hr
cm
rain 24hr
cm
rain mn
cm
humidity
%
barometer
mb
20260507021018 18 315 1.6 4.8 0.03 0.15 0.15 86 1009.7
20260507020518 19 315 3.2 11.3 0.00 0.13 0.13 84 1009.7
20260507020018 19 0 1.6 6.4 0.00 0.13 0.13 83 1009.6
20260507015737 19 0.0 3.2 0.00 0.13 0.13 83 1009.3
20260507015518 19 0.0 3.2 0.00 0.13 0.13 83 1009.3
20260507015018 19 270 1.6 6.4 0.00 0.13 0.13 83 1009.2
20260507014518 19 248 1.6 6.4 0.00 0.13 0.13 83 1009.1
20260507014018 19 248 1.6 4.8 0.00 0.13 0.13 83 1009.0
20260507013518 19 248 1.6 6.4 0.00 0.13 0.13 82 1008.9
20260507013018 19 248 3.2 8.0 0.00 0.13 0.13 82 1009.2
20260507012518 19 0.0 3.2 0.00 0.13 0.13 82 1009.2
20260507012018 19 248 1.6 6.4 0.00 0.13 0.13 82 1009.2
20260507011518 19 270 1.6 6.4 0.00 0.13 0.13 83 1009.5
20260507011017 19 248 1.6 8.0 0.00 0.13 0.13 83 1009.4
20260507010518 19 0.0 3.2 0.00 0.13 0.13 82 1008.9
20260507010018 19 270 1.6 6.4 0.00 0.13 0.13 82 1008.8
20260507005517 19 248 1.6 6.4 0.00 0.13 0.13 82 1008.6
20260507005018 19 0.0 6.4 0.00 0.13 0.13 82 1008.6
20260507004518 19 248 1.6 4.8 0.00 0.13 0.13 82 1008.7
20260507004114 19 248 1.6 4.8 0.00 0.13 0.13 82 1008.8
20260507004018 19 248 1.6 4.8 0.00 0.13 0.13 82 1008.8
20260507003518 19 248 1.6 6.4 0.00 0.13 0.13 82 1008.7
20260507003018 19 248 1.6 6.4 0.00 0.13 0.13 82 1008.6
20260507002518 19 248 1.6 3.2 0.00 0.13 0.13 82 1008.6
20260507002053 19 248 1.6 4.8 0.00 0.13 0.13 82 1008.5
20260507002017 19 248 1.6 4.8 0.00 0.13 0.13 82 1008.5
20260507001518 19 0.0 3.2 0.00 0.13 0.13 82 1008.5
20260507001018 19 0.0 1.6 0.00 0.13 0.13 82 1008.5
20260507000553 19 0.0 3.2 0.00 0.13 0.13 81 1008.5
20260507000518 19 0.0 3.2 0.00 0.13 0.13 81 1008.5
20260507000018 19 248 1.6 6.4 0.00 0.13 0.13 81 1008.5
20260506235600 19 248 1.6 4.8 0.00 0.13 0.13 81 1008.5
20260506235518 19 248 1.6 4.8 0.00 0.13 0.13 81 1008.5
20260506235049 19 270 1.6 4.8 0.00 0.13 0.13 81 1008.5
20260506235017 19 270 1.6 4.8 0.00 0.13 0.13 81 1008.5
20260506234517 19 248 1.6 8.0 0.00 0.13 0.13 81 1008.4
20260506234103 19 248 1.6 6.4 0.00 0.13 0.13 81 1008.4
20260506234018 19 248 1.6 6.4 0.00 0.13 0.13 81 1008.4
20260506233553 20 248 1.6 8.0 0.00 0.13 0.13 80 1008.3
20260506233518 20 248 1.6 8.0 0.00 0.13 0.13 80 1008.3
20260506233017 20 248 1.6 4.8 0.00 0.13 0.13 80 1008.3
20260506232518 20 248 1.6 4.8 0.00 0.13 0.13 80 1008.4
20260506232018 20 270 1.6 8.0 0.00 0.13 0.13 80 1008.4
20260506231517 20 248 3.2 8.0 0.00 0.13 0.13 79 1008.3
20260506231058 20 248 3.2 8.0 0.00 0.13 0.13 79 1008.2
20260506231018 20 248 3.2 8.0 0.00 0.13 0.13 79 1008.2
20260506230518 20 270 3.2 9.7 0.00 0.13 0.13 79 1008.3
20260506230017 20 248 1.6 6.4 0.00 0.13 0.13 79 1007.9
20260506225624 20 270 1.6 6.4 0.00 0.13 0.13 80 1008.0
20260506225518 20 270 1.6 6.4 0.00 0.13 0.13 80 1008.0
20260506225017 20 270 3.2 11.3 0.00 0.13 0.13 80 1008.2
20260506224518 20 248 3.2 8.0 0.00 0.13 0.13 80
20260506224017 19 270 3.2 8.0 0.00 0.13 0.13 80
20260506223551 19 248 1.6 6.4 0.00 0.13 0.13 81
20260506223518 19 248 1.6 6.4 0.00 0.13 0.13 81
20260506223018 19 248 1.6 8.0 0.00 0.13 0.13 81
20260506222518 19 248 1.6 9.7 0.00 0.13 0.13 81
20260506222018 19 248 1.6 6.4 0.00 0.13 0.13 82
20260506221552 19 248 1.6 8.0 0.00 0.13 0.13 81 1008.3
20260506221518 19 248 1.6 8.0 0.00 0.13 0.13 81 1008.3
20260506221018 19 248 1.6 4.8 0.00 0.13 0.13 82 1008.3
20260506220900 19 0.0 4.8 0.00 0.13 0.13 81 1008.2
20260506220517 19 0.0 4.8 0.00 0.13 0.13 81 1008.2
20260506220148 19 270 1.6 3.2 0.00 0.13 0.13 82 1008.1
20260506220038 19 248 3.2 8.0 0.00 0.13 0.13 82 1008.1
20260506215518 19 248 3.2 8.0 0.00 0.13 0.13 82 1008.1
20260506215017 19 248 3.2 9.7 0.00 0.13 0.13 82 1008.1
20260506214517 18 248 3.2 8.0 0.00 0.13 0.13 82 1008.1
20260506214017 18 270 1.6 8.0 0.00 0.13 0.13 83 1008.1
20260506213517 18 270 1.6 8.0 0.00 0.13 0.13 83 1008.0
20260506213018 18 248 3.2 9.7 0.00 0.13 0.13 83 1008.1
20260506212518 18 248 1.6 6.4 0.00 0.13 0.13 83 1008.0
20260506212500 18 270 1.6 8.0 0.00 0.13 0.13 83 1008.1
20260506212018 18 270 1.6 8.0 0.00 0.13 0.13 83 1008.1
20260506211517 18 270 1.6 11.3 0.00 0.13 0.13 83 1008.0
20260506211017 18 270 1.6 6.4 0.00 0.13 0.13 83 1007.9
20260506210517 18 270 3.2 14.5 0.00 0.13 0.13 83 1007.9
20260506210017 18 248 1.6 6.4 0.00 0.13 0.13 83 1007.7
20260506205517 18 248 1.6 8.0 0.00 0.13 0.13 83 1007.7
20260506205018 18 270 3.2 12.9 0.00 0.13 0.13 84 1007.6
20260506204518 18 248 3.2 9.7 0.00 0.13 0.13 83 1007.6
20260506204017 18 270 3.2 12.9 0.00 0.13 0.13 84 1007.6
20260506203746 18 270 1.6 14.5 0.00 0.13 0.13 84 1007.5
20260506203517 18 270 1.6 14.5 0.00 0.13 0.13 84 1007.5
20260506203018 18 270 3.2 9.7 0.00 0.13 0.13 85 1007.6
20260506202517 18 248 3.2 9.7 0.00 0.13 0.13 84 1007.5
20260506202017 18 270 3.2 12.9 0.00 0.13 0.13 85 1007.6
20260506201517 18 270 4.8 12.9 0.00 0.13 0.13 85 1007.7
20260506201333 17 293 3.2 16.1 0.00 0.13 0.13 85 1007.7
20260506201017 17 293 3.2 16.1 0.00 0.13 0.13 85 1007.7
20260506200517 17 270 3.2 11.3 0.00 0.13 0.13 86 1007.8
20260506200017 17 248 3.2 11.3 0.00 0.13 0.13 87 1007.8
20260506195517 17 270 3.2 9.7 0.00 0.13 0.13 87 1007.9
20260506195017 17 270 1.6 9.7 0.00 0.13 0.13 89 1007.9
20260506194517 17 270 1.6 4.8 0.00 0.13 0.13 89 1008.0
20260506194018 17 270 4.8 11.3 0.00 0.13 0.13 90 1008.1
20260506193517 17 270 3.2 14.5 0.00 0.13 0.13 90 1008.2
20260506193017 17 248 3.2 14.5 0.00 0.13 0.13 89 1008.2
20260506192517 17 248 3.2 9.7 0.00 0.13 0.13 89 1008.3
20260506192017 17 270 4.8 11.3 0.00 0.13 0.13 87 1008.4
20260506191517 17 270 6.4 17.7 0.00 0.13 0.13 85 1008.4
20260506191017 17 270 6.4 24.1 0.03 0.13 0.13 84 1008.5
20260506190517 17 270 8.0 22.5 0.03 0.13 0.13 85 1008.4
20260506190018 17 270 3.2 19.3 0.03 0.13 0.13 86 1008.3
20260506185519 17 270 3.2 8.0 0.03 0.13 0.13 87 1008.3
20260506185517 17 270 3.2 8.0 0.03 0.13 0.13 87 1008.2
20260506185018 17 270 3.2 8.0 0.03 0.13 0.13 87 1008.3
20260506184517 17 270 1.6 11.3 0.03 0.13 0.13 88 1008.3
20260506184017 17 270 4.8 14.5 0.03 0.13 0.13 88 1008.4
20260506183517 17 248 4.8 12.9 0.03 0.13 0.13 89 1008.3
20260506183017 17 248 3.2 9.7 0.03 0.13 0.13 89 1008.3
20260506182517 17 270 3.2 11.3 0.03 0.13 0.13 89 1008.4
20260506182017 17 270 4.8 14.5 0.03 0.13 0.13 88 1008.5
20260506181517 17 248 4.8 14.5 0.03 0.13 0.13 87 1008.5
20260506181017 18 270 8.0 20.9 0.00 0.10 0.10 85 1008.7
20260506180517 18 248 6.4 14.5 0.00 0.10 0.10 83 1008.6
20260506180017 18 248 6.4 19.3 0.00 0.10 0.10 82 1008.8
20260506175517 18 270 9.7 20.9 0.00 0.10 0.10 82 1008.8
20260506175017 18 248 4.8 12.9 0.00 0.10 0.10 83 1008.8
20260506174517 18 248 4.8 9.7 0.03 0.10 0.10 85 1008.9
20260506174017 18 270 3.2 9.7 0.03 0.10 0.10 86 1009.0
20260506173517 18 248 4.8 12.9 0.03 0.10 0.10 86 1008.8
20260506173017 18 248 3.2 9.7 0.03 0.10 0.10 87 1008.7
20260506172517 18 270 1.6 4.8 0.05 0.10 0.10 88 1008.4
20260506172017 18 270 1.6 6.4 0.05 0.10 0.10 88 1008.4
20260506171517 18 248 3.2 9.7 0.05 0.10 0.10 87 1008.5
20260506171017 18 248 1.6 6.4 0.05 0.10 0.10 88 1008.5
20260506170517 18 248 1.6 6.4 0.08 0.10 0.10 89 1008.6
20260506170017 17 0.0 3.2 0.08 0.10 0.10 89 1008.7
20260506165517 17 248 1.6 4.8 0.08 0.10 0.10 89 1008.7
20260506165017 17 225 1.6 6.4 0.10 0.10 0.10 88 1008.9
20260506164517 17 0.0 3.2 0.08 0.08 0.08 88 1009.2
20260506164017 17 0.0 3.2 0.08 0.08 0.08 88 1009.6
20260506163517 17 248 1.6 4.8 0.08 0.08 0.08 87 1009.8
20260506163017 17 270 1.6 4.8 0.08 0.08 0.08 87 1010.0
20260506162517 17 0.0 4.8 0.05 0.05 0.05 86 1010.0
20260506162017 17 270 1.6 4.8 0.05 0.05 0.05 85 1010.2
20260506161517 17 248 1.6 4.8 0.05 0.05 0.05 84 1010.2
20260506161017 18 270 3.2 9.7 0.05 0.05 0.05 82 1010.3
20260506160517 18 248 1.6 6.4 0.03 0.03 0.03 81 1010.2
20260506160151 18 248 4.8 12.9 0.03 0.03 0.03 80 1010.5
20260506160037 18 270 4.8 14.5 0.03 0.03 0.03 78 1010.5
20260506155517 18 270 4.8 14.5 0.03 0.03 0.03 78 1010.5
20260506155017 19 248 3.2 12.9 0.00 0.00 0.00 76 1010.3
20260506154517 20 248 3.2 11.3 0.00 0.00 0.00 74 1010.2
20260506154017 20 248 3.2 12.9 0.00 0.00 0.00 74 1010.3
20260506153517 20 270 3.2 12.9 0.00 0.00 0.00 72 1010.2
20260506153017 20 248 6.4 17.7 0.00 0.00 0.00 72 1010.2
20260506152931 20 270 3.2 9.7 0.00 0.00 0.00 71 1010.3
20260506152517 20 248 4.8 19.3 0.00 0.00 0.00 72 1010.2
20260506152017 20 270 3.2 9.7 0.00 0.00 0.00 71 1010.3
20260506151853 20 248 6.4 14.5 0.00 0.00 0.00 70 1010.0
20260506151517 20 248 3.2 9.7 0.00 0.00 0.00 70 1010.2
20260506151259 20 248 6.4 14.5 0.00 0.00 0.00 69 1010.1
20260506151017 20 248 6.4 14.5 0.00 0.00 0.00 70 1010.0
20260506150552 20 270 6.4 16.1 0.00 0.00 0.00 69 1010.3
20260506150517 20 248 6.4 14.5 0.00 0.00 0.00 69 1010.1
20260506150117 20 270 6.4 17.7 0.00 0.00 0.00 69 1010.3
20260506150017 20 270 6.4 16.1 0.00 0.00 0.00 69 1010.3
20260506145517 20 270 6.4 17.7 0.00 0.00 0.00 69 1010.3
20260506145058 20 270 6.4 17.7 0.00 0.00 0.00 67 1010.3
20260506145017 20 270 8.0 14.5 0.00 0.00 0.00 68 1010.4
20260506144517 20 248 8.0 19.3 0.00 0.00 0.00 68 1010.4
20260506144017 20 270 6.4 17.7 0.00 0.00 0.00 67 1010.3
20260506143517 20 270 6.4 20.9 0.00 0.00 0.00 68 1010.2
20260506143017 20 270 4.8 12.9 0.00 0.00 0.00 68 1010.3
20260506142517 20 248 8.0 14.5 0.00 0.00 0.00 68 1010.2
20260506142017 20 270 8.0 25.7 0.00 0.00 0.00 68 1010.2
20260506141517 20 248 6.4 20.9 0.00 0.00 0.00 69 1010.3
20260506141017 20 270 6.4 14.5 0.00 0.00 0.00 69 1010.2
20260506140517 20 248 11.3 38.6 0.00 0.00 0.00 69 1010.1
20260506140017 20 248 8.0 22.5 0.00 0.00 0.00 70 1010.2
20260506135517 20 270 4.8 12.9 0.00 0.00 0.00 70 1010.1
20260506135017 20 270 6.4 17.7 0.00 0.00 0.00 69 1010.1
20260506134517 20 270 6.4 27.4 0.00 0.00 0.00 70 1010.0
20260506134017 20 248 9.7 27.4 0.00 0.00 0.00 69 1010.0
20260506133517 20 248 8.0 16.1 0.00 0.00 0.00 69 1010.4
20260506133017 20 270 6.4 12.9 0.00 0.00 0.00 69 1010.5
20260506132517 20 248 9.7 24.1 0.00 0.00 0.00 70 1010.4
20260506132017 20 270 6.4 25.7 0.00 0.00 0.00 70 1010.4
20260506131517 20 270 4.8 12.9 0.00 0.00 0.00 70 1010.5
20260506131017 20 248 4.8 14.5 0.00 0.00 0.00 71 1010.3
20260506130517 20 248 8.0 19.3 0.00 0.00 0.00 71 1010.3
20260506130017 19 270 8.0 22.5 0.00 0.00 0.00 71 1010.5
20260506125517 19 270 8.0 22.5 0.00 0.00 0.00 71 1010.3
20260506125322 19 270 8.0 16.1 0.00 0.00 0.00 72 1010.3
20260506125017 19 270 8.0 16.1 0.00 0.00 0.00 72 1010.3
20260506124517 19 270 6.4 19.3 0.00 0.00 0.00 72 1010.2
20260506124330 19 270 6.4 17.7 0.00 0.00 0.00 73 1010.2
20260506124017 19 270 6.4 17.7 0.00 0.00 0.00 73 1010.2
20260506123517 18 248 8.0 17.7 0.00 0.00 0.00 74 1010.1
20260506123017 18 270 6.4 19.3 0.00 0.00 0.00 74 1010.3
20260506122517 18 270 4.8 16.1 0.00 0.00 0.00 74 1010.3
20260506122017 18 248 6.4 14.5 0.00 0.00 0.00 74 1010.3
20260506121517 18 248 6.4 16.1 0.00 0.00 0.00 75 1010.3
20260506121016 18 248 6.4 16.1 0.00 0.00 0.00 74 1010.3
20260506120517 18 270 6.4 25.7 0.00 0.00 0.00 74 1010.4
20260506120017 18 248 8.0 20.9 0.00 0.00 0.00 75 1010.4
20260506115517 18 270 4.8 14.5 0.00 0.00 0.00 75 1010.4
20260506115017 18 270 4.8 17.7 0.00 0.00 0.00 75 1010.5
20260506114517 18 270 4.8 16.1 0.00 0.00 0.00 75 1010.8
20260506114016 18 248 8.0 17.7 0.00 0.00 0.00 75 1010.8
20260506113517 18 248 6.4 12.9 0.00 0.00 0.00 76 1010.7
20260506113017 18 248 4.8 16.1 0.00 0.00 0.00 76 1010.6
20260506112517 18 248 3.2 14.5 0.00 0.00 0.00 77 1010.7
20260506112017 18 248 4.8 11.3 0.00 0.00 0.00 78 1010.6
20260506111517 17 248 6.4 16.1 0.00 0.00 0.00 78 1010.6
20260506111017 17 248 4.8 16.1 0.00 0.00 0.00 78 1010.7
20260506110517 17 248 4.8 17.7 0.00 0.00 0.00 78 1010.6
20260506110016 17 248 3.2 8.0 0.00 0.00 0.00 79 1010.6
20260506105516 17 248 4.8 17.7 0.00 0.00 0.00 79 1010.3
20260506105016 17 248 4.8 19.3 0.00 0.00 0.00 79 1010.5
20260506104517 -17 0.0 0.0 0.00 0.00 0.00
20260506104017 -17 0.0 0.0 0.00 0.00 0.00
20260506103517 -17 0.0 0.0 0.00 0.00 0.00
20260506103024 -17 0.0 0.0 0.00 0.00 0.00
20260506102517 -17 0.0 0.0 0.00 0.00 0.00
20260506102016 -17 0.0 0.0 0.00 0.00 0.00
20260506101517 -17 0.0 0.0 0.00 0.00 0.00
20260506101016 -17 0.0 0.0 0.00 0.00 0.00
20260506100555 -17 0.0 0.0 0.00 0.00 0.00
20260506100516 -17 0.0 0.0 0.00 0.00 0.00
20260506100149 -17 0.0 0.0 0.00 0.00 0.00
20260506100038 -17 0.0 0.0 0.00 0.00 0.00
20260506095543 -17 0.0 0.0 0.00 0.00 0.00
20260506095535 17 248 4.8 12.9 0.00 0.00 0.00
20260506095024 17 248 4.8 12.9 0.00 0.00 0.00
20260506094516 17 248 4.8 16.1 0.00 0.00 0.00 80 1010.0
20260506094016 17 248 4.8 14.5 0.00 0.00 0.00 80 1010.1
20260506093516 17 248 3.2 12.9 0.00 0.00 0.00 80 1010.1
20260506093017 17 248 3.2 8.0 0.00 0.00 0.00 80 1010.1
20260506092516 17 248 4.8 17.7 0.00 0.00 0.00 80 1010.2
20260506092016 17 248 3.2 14.5 0.00 0.00 0.00 80 1010.1
20260506091517 17 248 4.8 12.9 0.00 0.00 0.00 80 1010.2
20260506091016 17 248 4.8 16.1 0.00 0.00 0.00 80 1010.3
20260506090516 17 248 4.8 17.7 0.00 0.00 0.00 79 1010.3
20260506090016 17 248 6.4 19.3 0.00 0.00 0.00 79 1010.4
20260506085517 17 248 4.8 16.1 0.00 0.00 0.00 79 1010.3
20260506085016 17 248 6.4 14.5 0.00 0.00 0.00 79 1010.3
20260506084517 17 248 4.8 14.5 0.00 0.00 0.00 79 1010.4
20260506084017 18 248 4.8 17.7 0.00 0.00 0.00 79 1010.4
20260506083517 18 248 4.8 19.3 0.00 0.00 0.00 79 1010.4
20260506083017 18 248 4.8 17.7 0.00 0.00 0.00 79 1010.3
20260506082516 18 248 4.8 16.1 0.00 0.00 0.00 79 1010.3
20260506082017 18 248 4.8 16.1 0.00 0.00 0.00 79 1010.4
20260506081516 18 248 4.8 14.5 0.00 0.00 0.00 79 1010.5
20260506081016 18 225 4.8 12.9 0.00 0.00 0.00 79 1010.5
20260506080516 18 248 4.8 11.3 0.00 0.00 0.00 79 1010.5
20260506073516 18 248 3.2 12.9 0.00 0.00 0.00 78 1010.4
20260506073016 18 225 1.6 8.0 0.00 0.00 0.00 77 1010.5
20260506072516 18 248 4.8 12.9 0.00 0.00 0.00 77 1010.6
20260506072016 18 248 3.2 9.7 0.00 0.00 0.00 77 1010.5
20260506071516 18 248 4.8 12.9 0.00 0.00 0.00 77 1010.6
20260506071016 18 248 3.2 14.5 0.00 0.00 0.00 76 1010.6
20260506070516 18 248 6.4 14.5 0.00 0.00 0.00 76 1010.7
20260506062516 18 248 4.8 11.3 0.00 0.00 0.00 75 1010.9
20260506062016 18 248 3.2 12.9 0.00 0.00 0.00 74 1010.8
20260506061516 19 270 4.8 11.3 0.00 0.00 0.00 74 1010.9
20260506061016 19 248 4.8 9.7 0.00 0.00 0.00 74 1010.9
20260506060516 19 270 3.2 11.3 0.00 0.00 0.00 74 1010.7
20260506051016 19 248 3.2 14.5 0.00 0.00 0.00 70 1011.4
20260506050516 19 248 4.8 14.5 0.00 0.00 0.00 70 1011.6
20260506045016 20 248 3.2 11.3 0.00 0.00 0.00 69 1011.6
20260506044516 20 248 3.2 16.1 0.00 0.00 0.00 69 1011.4
20260506044016 20 248 3.2 9.7 0.00 0.00 0.00 69 1011.6
20260506043516 20 248 4.8 9.7 0.00 0.00 0.00 69 1011.6
20260506043050 20 248 4.8 14.5 0.00 0.00 0.00 69 1011.5
20260506043030 20 248 3.2 9.7 0.00 0.00 0.00 69 1011.6
20260506043016 20 248 4.8 14.5 0.00 0.00 0.00 69 1011.5
20260506042516 20 248 3.2 9.7 0.00 0.00 0.00 69 1011.6
20260506042016 19 248 4.8 16.1 0.00 0.00 0.00 69 1011.6
20260506041516 19 248 3.2 11.3 0.00 0.00 0.00 69 1011.5
20260506041016 19 270 1.6 6.4 0.00 0.00 0.00 69 1011.5
20260506040516 19 248 3.2 9.7 0.00 0.00 0.00 69 1011.4
20260506040151 19 248 4.8 16.1 0.00 0.00 0.00 68 1011.5
20260506040034 19 248 1.6 9.7 0.00 0.00 0.00 68 1011.4
20260506035516 19 248 1.6 9.7 0.00 0.00 0.00 68 1011.4
20260506035016 19 248 3.2 8.0 0.00 0.00 0.00 68 1011.4
20260506034516 19 248 1.6 12.9 0.00 0.00 0.00 68 1011.4
20260506034016 19 248 1.6 8.0 0.00 0.00 0.00 67 1011.4
20260506033602 19 248 1.6 8.0 0.00 0.00 0.00 67 1011.5
20260506033600 20 248 3.2 11.3 0.00 0.00 0.00 67 1011.5
20260506033516 19 248 1.6 8.0 0.00 0.00 0.00 67 1011.5
20260506033016 20 248 3.2 11.3 0.00 0.00 0.00 67 1011.5
20260506032516 20 248 3.2 12.9 0.00 0.00 0.00 66 1011.5
20260506032016 20 248 1.6 8.0 0.00 0.00 0.00 66 1011.4
20260506031516 20 248 3.2 17.7 0.00 0.00 0.00 66 1011.5
20260506031235 20 248 1.6 6.4 0.00 0.00 0.00 65 1011.4
20260506031016 20 248 1.6 6.4 0.00 0.00 0.00 65 1011.4
20260506030516 20 248 1.6 8.0 0.00 0.00 0.00 65 1011.5
20260506030016 20 248 3.2 12.9 0.00 0.00 0.00 65 1011.5
20260506025516 20 225 1.6 9.7 0.00 0.00 0.00 64 1011.4
20260506025016 20 248 3.2 12.9 0.00 0.00 0.00 64 1011.4
20260506024516 20 248 3.2 14.5 0.00 0.00 0.00 64 1011.4
20260506024016 20 248 3.2 11.3 0.00 0.00 0.00 64 1011.4
20260506023518 20 225 3.2 9.7 0.00 0.00 0.00 64 1011.4
20260506023018 20 248 1.6 9.7 0.00 0.00 0.00 63 1011.5
20260506022518 20 248 1.6 11.3 0.00 0.00 0.00 63 1011.4
20260506022018 20 248 3.2 12.9 0.00 0.00 0.00 63 1011.4
20260506021518 21 248 3.2 11.3 0.00 0.00 0.00 63 1011.4